Flag for Switzerland Weather past 2 weeks in Versoix, Geneva, Switzerland

Now
94 °F

Scattered clouds.


Feels Like: 94 °F
Forecast: 64 / 94 °F
Wind: 3 mph from East

Location: Geneve-Cointrin

Current Time: Jul 3, 2015 at 6:21:30 PM

Latest Report: Jul 3, 2015 at 5:00 PM


Visibility: 19 mi

Pressure: 30.08 "Hg

Humidity: 30%

Dew point: 58 °F

Location of VersoixLocation

Historic Weather in Versoix — Graph

°F

Versoix temperature yesterday

Maximum temperature yesterday: 96 °F (at 5:00 PM)
Minimum temperature yesterday: 67 °F (at 6:00 AM)
Average temperature yesterday: 82 °F

Past Weeks' High & Low Weather Summary

 TemperatureHumidityPressure
High96 °F (Jul 2, 5:00 PM)94% (Jun 19, 2:00 AM)30.24 "Hg (Jun 19, 2:00 AM)
Low48 °F (Jun 24, 6:00 AM)20% (Jun 26, 4:00 PM)29.78 "Hg (Jun 22, 9:00 PM)
Average70 °F55%30.08 "Hg
* Reported Jun 18 5:00 PM — Jul 3 5:00 PM, Versoix, Weather by CustomWeather, © 2015

Note: Actual official high and low records may vary slightly from our data, if they occured in-between our weather recording intervals... More about our weather records

Advertising

Versoix weather history for previous 24 hours

 ConditionsComfort  
Time TempWeatherWind HumidityBarometerVisibility
5:00 PM
Fri, Jul 3
94 °FScattered clouds.3 mph30%30.08 "Hg19 mi
4:00 PM94 °FExtremely hot.3 mph33%30.10 "HgN/A
3:00 PM95 °FExtremely hot.3 mph32%30.12 "HgN/A
2:00 PM90 °FPartly sunny.5 mph37%30.16 "Hg19 mi
1:00 PM85 °FWarm.6 mph42%30.18 "HgN/A
12:00 PM86 °FWarm.2 mph44%30.19 "HgN/A
11:00 AM80 °FWarm.5 mph56%30.21 "HgN/A
10:00 AM79 °FWarm.3 mph55%30.22 "HgN/A
9:00 AM78 °FWarm.2 mph57%30.22 "HgN/A
8:00 AM74 °FScattered clouds.1 mph66%30.22 "Hg22 mi
7:00 AM67 °FMild.No wind75%30.24 "HgN/A
6:00 AM67 °FMild.1 mph72%30.23 "HgN/A
5:00 AM67 °FPassing clouds.1 mph78%30.22 "Hg22 mi
4:00 AM70 °FMild.3 mph70%30.21 "HgN/A
3:00 AM70 °FMild.1 mph72%30.21 "HgN/A
2:00 AM72 °FMild.1 mph68%30.21 "HgN/A
1:00 AM72 °FMild.2 mph67%30.20 "HgN/A
12:00 AM76 °FMild.3 mph58%30.18 "HgN/A
11:00 PM
Thu, Jul 2
82 °FPassing clouds.7 mph47%30.16 "Hg22 mi
10:00 PM85 °FWarm.9 mph41%30.13 "HgN/A
9:00 PM88 °FPleasantly warm.9 mph37%30.10 "HgN/A
8:00 PM91 °FPassing clouds.12 mph31%30.07 "Hg19 mi
7:00 PM94 °FExtremely hot.12 mph25%30.05 "HgN/A
6:00 PM96 °FExtremely hot.12 mph26%30.04 "HgN/A
Weather by CustomWeather, © 2015

See weather overviewHow to use our weather pages